Torna al catalogo

VOLGA DEB

AttivoSSO
NORAD 44621·DEBRIS·🇷🇺 Russia

Lanciato Jul 10, 2019 da Plesetsk Cosmodrome

Loading…

Prossimi Passaggi (prossime 24 ore)

TLE

AggiornatoSource: Space-Track

Epoca: Sep 14, 2026, 00:19 UTC

1 44621U 19039F   26257.01319965  .00002322  00000-0  20626-3 0  9993
2 44621  97.5739 280.3439 0006430 305.2801  54.7819 14.97063499389736

Traccia VOLGA DEB in tempo reale con AllMySat

Download on the App Store